Regional Weather Roundup
Issued by NWS

Home | Current Version | Previous Version | Graphics & Text | Print | Product List | Glossary On
Versions: 1 2 3 4 5 6 7 8 9 10 11 12 13 14 15 16 17 18 19 20 21 22 23 24 25 26 27 28 29 30 31 32 33 34 35 36 37 38 39 40 41 42 43 44 45 46 47 48 49 50
000
ASUS43 KDTX 210001
RWRMI
MICHIGAN HOURLY REGIONAL WEATHER ROUNDUP
NATIONAL WEATHER SERVICE DETROIT/PONTIAC MI
800 PM EDT FRI APR 20 2018

NOTE: "FAIR" INDICATES FEW OR NO CLOUDS BELOW 12,000 FEET WITH NO
SIGNIFICANT WEATHER AND/OR OBSTRUCTION TO VISIBILITY.

MIZ047>049-052>055-059>063-066>070-074>076-081>083-210100-
SOUTHEAST LOWER MICHIGAN

CITY           SKY/WX    TMP DP  RH WIND       PRES   REMARKS
ADRIAN         FAIR      53  21  28 NE5       30.43S
6HR MIN TEMP:  53; 6HR MAX TEMP:  59;

ALMA           FAIR      54  21  28 N5        30.42S
6HR MIN TEMP:  53; 6HR MAX TEMP:  57;

ANN ARBOR      FAIR      53  19  26 N8        30.43S
BAD AXE        FAIR      47  11  23 E5        30.45S
6HR MIN TEMP:  47; 6HR MAX TEMP:  52;

CARO           FAIR      50  15  24 CALM      30.43S
DETROIT CITY   FAIR      47  28  47 E9        30.45S
6HR MIN TEMP:  47; 6HR MAX TEMP:  55;

DETROIT        FAIR      51  25  36 SE8       30.44S
6HR MIN TEMP:  51; 6HR MAX TEMP:  59;

FLINT          FAIR      49  23  36 SE7       30.43F
6HR MIN TEMP:  49; 6HR MAX TEMP:  55;

GROSSE ILE     FAIR      44  29  57 CALM      30.44S
6HR MIN TEMP:  44; 6HR MAX TEMP:  50;

HILLSDALE      FAIR      52  19  28 N5        30.41F
HOWELL         FAIR      51  17  26 CALM      30.43S
6HR MIN TEMP:  51; 6HR MAX TEMP:  55;


CITY           SKY/WX    TMP DP  RH WIND       PRES   REMARKS
JACKSON        FAIR      54  17  23 NE5       30.42S
6HR MIN TEMP:  53; 6HR MAX TEMP:  58;

LAMBERTVILLE   FAIR      53  23  31 E5        30.43S
6HR MIN TEMP:  53; 6HR MAX TEMP:  59;

LANSING        FAIR      55  21  26 CALM      30.43S
6HR MIN TEMP:  53; 6HR MAX TEMP:  58;

LAPEER         FAIR      49  19  30 NE3       30.44S
6HR MIN TEMP:  49; 6HR MAX TEMP:  53;

MASON          FAIR      55  14  19 NE3       30.43S
6HR MIN TEMP:  54; 6HR MAX TEMP:  58;

MONROE         FAIR      47  22  37 E9        30.43F
6HR MIN TEMP:  47; 6HR MAX TEMP:  55;

PONTIAC        FAIR      51  15  23 N8        30.42F
6HR MIN TEMP:  51; 6HR MAX TEMP:  56;

PORT HOPE        N/A     40  24  53 SE5       30.44F
6HR MIN TEMP:  38; 6HR MAX TEMP:  41;

PORT HURON     FAIR      39  18  41 NE6       30.47S WCI  35
TRI CITIES     FAIR      53  30  41 E8        30.43S
6HR MIN TEMP:  51; 6HR MAX TEMP:  59;

MIDLAND        FAIR      49  31  50 E7        30.42S
6HR MIN TEMP:  49; 6HR MAX TEMP:  58;

TROY           FAIR      52  25  35 E6        30.46R
SAGINAW HB     FAIR      52  27  37 E7        30.42F
$$
MIZ043>046-050>051-056>058-064>065-071>073-077>080-210100-
SOUTHWEST LOWER MICHIGAN

CITY           SKY/WX    TMP DP  RH WIND       PRES   REMARKS
BATTLE CREEK   FAIR      57  19  22 CALM      30.42S
6HR MIN TEMP:  56; 6HR MAX TEMP:  60;

BENTON HARBOR  FAIR      47  14  26 CALM      30.44F
6HR MIN TEMP:  47; 6HR MAX TEMP:  52;

BIG RAPIDS     FAIR      52   8  17 NW7       30.41S
6HR MIN TEMP:  52; 6HR MAX TEMP:  56;

COLDWATER      FAIR      54  24  31 NE5       30.41F
6HR MIN TEMP:  54; 6HR MAX TEMP:  59;

FREMONT        FAIR      49   9  20 W7        30.43F
6HR MIN TEMP:  49; 6HR MAX TEMP:  57;

HOLLAND        FAIR      49  17  28 NW5       30.44F
6HR MIN TEMP:  49; 6HR MAX TEMP:  53;

GRAND RAPIDS   FAIR      52  23  32 NW10      30.42F
6HR MIN TEMP:  52; 6HR MAX TEMP:  60;

IONIA          FAIR      56  17  21 CALM      30.41S
6HR MIN TEMP:  54; 6HR MAX TEMP:  58;

KALAMAZOO      FAIR      54  23  30 NW12      30.42F
6HR MIN TEMP:  54; 6HR MAX TEMP:  60; 6HR PCP: TRACE;

LUDINGTON      FAIR      44  17  33 CALM      30.44F
6HR MIN TEMP:  44; 6HR MAX TEMP:  49;

MARSHALL       FAIR      54  15  21 CALM      30.41F
6HR MIN TEMP:  54; 6HR MAX TEMP:  58;

MOUNT PLEASANT FAIR      55  21  26 N3        30.41S
6HR MIN TEMP:  54; 6HR MAX TEMP:  59;

MUSKEGON       FAIR      47  15  27 NW5       30.45F
6HR MIN TEMP:  47; 6HR MAX TEMP:  52;

SOUTH HAVEN    FAIR      46  10  23 N5        30.44F
$$
MIZ016>042-210100-
NORTHERN LOWER MICHIGAN

CITY           SKY/WX    TMP DP  RH WIND       PRES   REMARKS
ALPENA         FAIR      38  23  55 SE6       30.44S WCI  33
6HR MIN TEMP:  38; 6HR MAX TEMP:  50;

BEAVER ISLAND  FAIR      44  15  31 SW7       30.43F
6HR MIN TEMP:  44; 6HR MAX TEMP:  49;

BELLAIRE       FAIR      47  11  23 CALM      30.44F
6HR MIN TEMP:  47; 6HR MAX TEMP:  50;

CADILLAC       FAIR      47  14  26 NW7       30.41F
CHARLEVOIX     FAIR      45  15  30 SW3       30.47S
6HR MIN TEMP:  44; 6HR MAX TEMP:  47;

FRANKFORT      FAIR      46  13  26 CALM      30.44F
GAYLORD        FAIR      46  13  26 W5        30.42F
6HR MIN TEMP:  45; 6HR MAX TEMP:  50;

GRAYLING       FAIR      46  15  28 N5        30.42S
6HR MIN TEMP:  46; 6HR MAX TEMP:  50;

HARBOR SPRINGS FAIR      38  22  53 CALM      30.44F
HOUGHTON LAKE  FAIR      49  13  23 N6        30.42F
6HR MIN TEMP:  49; 6HR MAX TEMP:  56;

MANISTEE       FAIR      46  18  32 W3        30.45F
OSCODA         FAIR      40  18  41 E3        30.45S
6HR MIN TEMP:  39; 6HR MAX TEMP:  42;

PELLSTON       FAIR      47  11  23 W6        30.43S
6HR MIN TEMP:  46; 6HR MAX TEMP:  50;

ROGERS CITY    FAIR      44  15  31 CALM      30.44S
TRAVERSE CITY  FAIR      46  22  38 CALM      30.43F
6HR MIN TEMP:  45; 6HR MAX TEMP:  50;

$$
MIZ007>008-015-210100-
EASTERN UPPER MICHIGAN

CITY           SKY/WX    TMP DP  RH WIND       PRES   REMARKS
KINROSS        FAIR      46  14  27 NW5       30.41F
6HR MIN TEMP:  46; 6HR MAX TEMP:  48;

MACKINAC ISLAN FAIR      41  14  32 W9        30.43S
6HR MIN TEMP:  39; 6HR MAX TEMP:  46;

NEWBERRY       FAIR      44  18  35 SW8       30.40F
6HR MIN TEMP:  44; 6HR MAX TEMP:  53;

S. S. MARIE    FAIR      48  16  27 W6        30.40F
6HR MIN TEMP:  48; 6HR MAX TEMP:  52;

MUNISING         N/A     38  26  62 CALM      30.41R
6HR MIN TEMP:  38; 6HR MAX TEMP:  44;

$$
MIZ004>006-011>014-085-210100-
CENTRAL UPPER MICHIGAN

CITY           SKY/WX    TMP DP  RH WIND       PRES   REMARKS
MANISTIQUE     FAIR      37  31  79 S10       30.43S WCI  30
6HR MIN TEMP:  37; 6HR MAX TEMP:  46;

ESCANABA       FAIR      47  20  34 S10       30.40S
6HR MIN TEMP:  45; 6HR MAX TEMP:  52;

MENOMINEE      FAIR      50  16  25 SW9       30.42R
6HR MIN TEMP:  50; 6HR MAX TEMP:  54;

SAWYER-GWINN   CLEAR     48  16  27 NE6       30.40R
$$
MIZ001>003-009>011-084-210100-
WESTERN UPPER MICHIGAN

CITY           SKY/WX    TMP DP  RH WIND       PRES   REMARKS
IRON MOUNTAIN  FAIR      54  19  25 S10       30.34F
6HR MIN TEMP:  54; 6HR MAX TEMP:  60;

HOUGHTON       FAIR      43  14  31 E9        30.38F
6HR MIN TEMP:  43; 6HR MAX TEMP:  54;

COPPER HARBOR    N/A     42  23  46 CALM      30.40F
6HR MIN TEMP:  40; 6HR MAX TEMP:  44;

IRONWOOD       FAIR      54  14  20 NW5       30.38S
6HR MIN TEMP:  52; 6HR MAX TEMP:  57;

$$

ABBREVIATIONS USED IN REMARKS
   TC - TEMPERATURE IN CELSIUS
  WCI - WIND CHILL INDEX
   HX - HEAT INDEX
  VSB - VISIBILITY





USA.gov is the U.S. government's official web portal to all federal, state and local government web resources and services.